TimeCEST,TemperatureF,Dew PointF,Humidity,Sea Level PressureIn,VisibilityMPH,Wind Direction,Wind SpeedMPH,Gust SpeedMPH,PrecipitationIn,Events,Conditions,WindDirDegrees,DateUTC
12:00 AM,60.8,57.2,88,30.39,-9999.0,NW,5.8,-,N/A,,Clear,320,2013-07-05 22:00:00
12:30 AM,60.8,57.2,88,30.39,-9999.0,NW,8.1,-,N/A,,Clear,310,2013-07-05 22:30:00
1:00 AM,60.8,57.2,88,30.39,-9999.0,NW,8.1,-,N/A,,Clear,320,2013-07-05 23:00:00
1:30 AM,60.8,57.2,88,30.39,-9999.0,NW,6.9,-,N/A,,Clear,320,2013-07-05 23:30:00
2:00 AM,60,56,83,30.38,7,NW,4.5,,,,Mostly Cloudy,310,2013-07-06 00:00:00
2:00 AM,60.8,55.4,82,30.39,-9999.0,NW,6.9,-,N/A,,Clear,320,2013-07-06 00:00:00
2:30 AM,59.0,55.4,88,30.39,-9999.0,NW,6.9,-,N/A,,Clear,310,2013-07-06 00:30:00
3:00 AM,59.0,55.4,88,30.39,-9999.0,NW,6.9,-,N/A,,Clear,310,2013-07-06 01:00:00
3:30 AM,59.0,55.4,88,30.39,-9999.0,NW,8.1,-,N/A,,Clear,310,2013-07-06 01:30:00
4:00 AM,59.0,57.2,94,30.36,5.0,NW,9.2,-,N/A,,Unknown,320,2013-07-06 02:00:00
4:30 AM,59.0,57.2,94,30.36,3.7,NNW,8.1,-,N/A,,Unknown,340,2013-07-06 02:30:00
4:46 AM,59.0,57.2,94,30.39,2.8,NNW,9.2,-,N/A,,Mist,340,2013-07-06 02:46:00
5:00 AM,59.0,57.2,94,30.39,2.8,NNW,8.1,-,N/A,,Mist,330,2013-07-06 03:00:00
5:30 AM,59.0,57.2,94,30.39,2.5,NNW,9.2,-,N/A,,Mist,340,2013-07-06 03:30:00
6:00 AM,59.0,57.2,94,30.39,2.8,NNW,9.2,-,N/A,,Partly Cloudy,330,2013-07-06 04:00:00
6:30 AM,60.8,59.0,94,30.39,3.1,NNW,10.4,-,N/A,,Mist,340,2013-07-06 04:30:00
7:00 AM,62.6,59.0,88,30.39,3.1,NNW,11.5,-,N/A,,Mist,340,2013-07-06 05:00:00
7:30 AM,62.6,60.8,94,30.39,3.1,NNW,10.4,-,N/A,,Partly Cloudy,340,2013-07-06 05:30:00
8:00 AM,64,60,84,30.38,4,North,8.9,,,,Mist,0,2013-07-06 06:00:00
8:00 AM,64.4,60.8,88,30.39,3.7,NNW,9.2,-,N/A,,Scattered Clouds,340,2013-07-06 06:00:00
8:14 AM,64.4,60.8,88,30.39,3.7,North,10.4,-,N/A,,Scattered Clouds,350,2013-07-06 06:14:00
8:30 AM,64.4,60.8,88,30.39,3.7,North,9.2,-,N/A,,Mostly Cloudy,360,2013-07-06 06:30:00
9:00 AM,66.2,60.8,83,30.39,4.3,North,10.4,-,N/A,,Mostly Cloudy,360,2013-07-06 07:00:00
9:30 AM,66.2,60.8,83,30.39,5.0,North,10.4,-,N/A,,Mostly Cloudy,360,2013-07-06 07:30:00
10:00 AM,66.2,60.8,83,30.39,5.6,North,9.2,-,N/A,,Mostly Cloudy,350,2013-07-06 08:00:00
10:30 AM,69.8,60.8,73,30.39,6.2,North,11.5,-,N/A,,Mostly Cloudy,360,2013-07-06 08:30:00
11:00 AM,69.8,60.8,73,30.39,6.2,North,10.4,-,N/A,,Mostly Cloudy,360,2013-07-06 09:00:00
11:30 AM,69.8,60.8,73,30.39,6.2,North,11.5,-,N/A,,Mostly Cloudy,350,2013-07-06 09:30:00
12:00 PM,69.8,60.8,73,30.39,6.2,NNE,10.4,-,N/A,,Scattered Clouds,20,2013-07-06 10:00:00
12:30 PM,69.8,59.0,68,30.39,6.2,North,9.2,-,N/A,,Scattered Clouds,10,2013-07-06 10:30:00
1:00 PM,71.6,60.8,69,30.39,6.2,North,9.2,-,N/A,,Scattered Clouds,360,2013-07-06 11:00:00
1:30 PM,73.4,59.0,61,30.39,6.2,North,10.4,-,N/A,,Scattered Clouds,360,2013-07-06 11:30:00
2:00 PM,74,60,53,30.35,16,North,8.9,,,,Partly Cloudy,0,2013-07-06 12:00:00
2:00 PM,73.4,59.0,61,30.39,6.2,North,9.2,-,N/A,,Scattered Clouds,10,2013-07-06 12:00:00
2:30 PM,71.6,60.8,69,30.39,6.2,ENE,9.2,-,N/A,,Scattered Clouds,60,2013-07-06 12:30:00
3:00 PM,71.6,60.8,69,30.39,6.2,ENE,8.1,-,N/A,,Scattered Clouds,60,2013-07-06 13:00:00
3:30 PM,71.6,59.0,64,30.39,6.2,NE,6.9,-,N/A,,Partly Cloudy,50,2013-07-06 13:30:00
4:00 PM,71.6,57.2,60,30.36,6.2,NE,8.1,-,N/A,,Partly Cloudy,50,2013-07-06 14:00:00
4:30 PM,71.6,59.0,64,30.36,6.2,ENE,8.1,-,N/A,,Partly Cloudy,60,2013-07-06 14:30:00
5:00 PM,71.6,59.0,64,30.36,6.2,NE,8.1,-,N/A,,Partly Cloudy,50,2013-07-06 15:00:00
5:30 PM,71.6,59.0,64,30.36,6.2,NNE,10.4,-,N/A,,Partly Cloudy,30,2013-07-06 15:30:00
6:00 PM,73.4,59.0,61,30.36,6.2,NE,9.2,-,N/A,,Partly Cloudy,40,2013-07-06 16:00:00
6:30 PM,73.4,57.2,57,30.33,6.2,NNE,9.2,-,N/A,,Partly Cloudy,20,2013-07-06 16:30:00
7:00 PM,73.4,59.0,61,30.36,6.2,NNE,10.4,-,N/A,,Partly Cloudy,30,2013-07-06 17:00:00
7:30 PM,71.6,59.0,64,30.36,6.2,NNE,5.8,-,N/A,,Partly Cloudy,30,2013-07-06 17:30:00
8:00 PM,71,57,52,30.33,22,NNE,8.9,,,,Scattered Clouds,30,2013-07-06 18:00:00
8:00 PM,71.6,57.2,60,30.36,6.2,NNE,8.1,-,N/A,,Partly Cloudy,30,2013-07-06 18:00:00
8:30 PM,69.8,59.0,68,30.36,-9999.0,NNE,5.8,-,N/A,,Clear,20,2013-07-06 18:30:00
9:00 PM,68.0,59.0,73,30.36,-9999.0,North,4.6,-,N/A,,Clear,10,2013-07-06 19:00:00
9:30 PM,66.2,59.0,78,30.39,-9999.0,North,5.8,-,N/A,,Clear,10,2013-07-06 19:30:00
10:00 PM,64.4,57.2,77,30.39,-9999.0,North,6.9,-,N/A,,Clear,360,2013-07-06 20:00:00
10:30 PM,64.4,57.2,77,30.39,-9999.0,North,6.9,-,N/A,,Clear,360,2013-07-06 20:30:00
11:00 PM,62.6,57.2,82,30.39,-9999.0,North,4.6,-,N/A,,Clear,360,2013-07-06 21:00:00
11:30 PM,62.6,57.2,82,30.39,6.2,NNE,3.5,-,N/A,,Partly Cloudy,20,2013-07-06 21:30:00